This demonstration page uses our WeatherBlox Daily Observations layout. Learn more.

Left ArrowRight Arrow

Hourly Observations for June 17, 2021

Temp ( °F °C ) Dew Point ( °F °C ) Humidity (%) Winds ( mph kmh ) Pressure ( in mb ) Visibility ( mi km ) Precip ( " mm )
12:53 am 00:53 Clear 57 13.9 53 11.7 87 87 N N/A 30.04 1017 10 16 N/A
1:53 am 01:53 Mostly Clear 56 13.3 54 12.2 93 93 N N/A 30.03 1017 10 16 N/A
2:53 am 02:53 Mostly Cloudy 57 13.9 55 12.8 93 93 N N/A 30.04 1017 10 16 N/A
3:53 am 03:53 Partly Cloudy 57 13.9 54 12.2 90 90 N N/A 30.03 1017 10 16 N/A
4:53 am 04:53 Clear 55 12.8 53 11.7 93 93 N N/A 30.03 1017 10 16 N/A
5:53 am 05:53 Clear 54 12.2 53 11.7 97 97 N N/A 30.05 1018 10 16 N/A
6:53 am 06:53 Sunny 56 13.3 53 11.7 90 90 N N/A 30.06 1018 10 16 N/A
7:53 am 07:53 Sunny 63 17.2 56 13.3 78 78 N N/A 30.05 1018 10 16 N/A
8:53 am 08:53 Sunny 70 21.1 56 13.3 61 61 N N/A 30.06 1018 10 16 N/A
9:53 am 09:53 Sunny 75 23.9 55 12.8 50 50 VRB 3 6 30.07 1018 10 16 N/A
10:53 am 10:53 Sunny 79 26.1 57 13.9 47 47 undefined N/A 30.06 1018 10 16 N/A
11:53 am 11:53 Sunny 79 26.1 57 13.9 47 47 W 7 11 30.06 1018 10 16 N/A
12:53 pm 12:53 Sunny with Light Rain 82 27.8 55 12.8 40 40 W 6 9 30.06 1018 10 16 0.00 0.00
1:53 pm 13:53 Sunny with Light Rain 84 28.9 56 13.3 38 38 VRB 6 9 30.04 1017 10 16 0.00 0.00
2:53 pm 14:53 Sunny with Light Rain 85 29.4 54 12.2 35 35 WSW 3 6 30.01 1016 10 16 0.00 0.00
3:53 pm 15:53 Sunny with Light Rain 86 30 55 12.8 35 35 SW 6 9 29.99 1016 10 16 0.00 0.00
4:53 pm 16:53 Sunny with Light Rain 86 30 56 13.3 36 36 VRB 5 7 29.98 1015 10 16 0.00 0.00
5:53 pm 17:53 Sunny 86 30 55 12.8 35 35 VRB 3 6 29.98 1015 10 16 0.00 0.00
6:53 pm 18:53 Sunny with Light Rain 85 29.4 58 14.4 40 40 WSW 7 11 29.97 1015 10 16 0.00 0.00
7:53 pm 19:53 Sunny with Light Rain 81 27.2 58 14.4 45 45 VRB 5 7 29.98 1015 10 16 0.00 0.00
8:53 pm 20:53 Sunny with Light Rain 74 23.3 60 15.6 62 62 N N/A 29.98 1015 10 16 0.00 0.00
9:53 pm 21:53 Clear 69 20.6 61 16.1 76 76 N N/A 29.99 1016 10 16 0.00 0.00
10:53 pm 22:53 Clear 67 19.4 61 16.1 81 81 N N/A 30.01 1016 10 16 0.00 0.00
11:53 pm 23:53 Clear 65 18.3 60 15.6 84 84 N N/A 30.00 1016 10 16 N/A

Powered by AerisWeather